Hourly Data Report for September 17, 2017

All times are specified in Local Standard Time (LST). Add 1 hour to adjust for Daylight Saving Time where and when it is observed.

KAMLOOPS A
BRITISH COLUMBIA

50°42'09.000" N
120°26'55.000" W
345.30 m
1163781
71887
YKA

Download Data

Hourly Data (September 2017)
Hourly Data Report for September 17, 2017
Temp Definition
°C
Dew Point Temp Definition
°C
Rel Hum Definition
%
Wind Dir Definition
10's deg

Wind Spd Definition
km/h
Visibility Definition
km
Stn Press Definition
kPa
Hmdx Definition


Wind Chill Definition


Weather Definition


TIME
00:00 Legend Double Dagger 11.9 1.5 48 9 8 64.4 96.99     LegendNANA
01:00 Legend Double Dagger 12.7 2.6 50 12 4 64.4 97.01     Mainly Clear
02:00 Legend Double Dagger 10.9 1.5 52   0 64.4 96.99     LegendNANA
03:00 Legend Double Dagger 9.4 1.3 57 10 13 64.4 96.97     LegendNANA
04:00 Legend Double Dagger 8.6 1.2 60 10 11 64.4 96.94     Mainly Clear
05:00 Legend Double Dagger 8.9 1.0 58 7 5 64.4 96.89     LegendNANA
06:00 Legend Double Dagger 10.5 2.3 57 8 14 48.3 96.87     LegendNANA
07:00 Legend Double Dagger 11.1 3.0 57 10 9 32.2 96.86     Mostly Cloudy
08:00 Legend Double Dagger 12.7 2.5 50 8 18 32.2 96.80     LegendNANA
09:00 Legend Double Dagger 14.8 3.0 45 10 19 24.1 96.71     LegendNANA
10:00 Legend Double Dagger 17.4 1.6 34 10 28 24.1 96.61     Cloudy
11:00 Legend Double Dagger 18.6 2.9 35 11 30 24.1 96.48     LegendNANA
12:00 Legend Double Dagger 20.8 2.3 29 10 18 16.1 96.38     LegendNANA
13:00 Legend Double Dagger 21.9 0.6 24 15 21 16.1 96.26     Mostly Cloudy
14:00 Legend Double Dagger 20.8 1.7 28 10 10 16.1 96.21     LegendNANA
15:00 Legend Double Dagger 20.9 0.5 25 19 10 24.1 96.20     LegendNANA
16:00 Legend Double Dagger 20.0 2.5 31 9 21 24.1 96.15     Mostly Cloudy
17:00 Legend Double Dagger 19.1 3.5 35 16 4 24.1 96.19     LegendNANA
18:00 Legend Double Dagger 18.7 3.4 36 14 14 24.1 96.14     LegendNANA
19:00 Legend Double Dagger 17.9 4.0 39 14 16 24.1 96.20     Mostly Cloudy
20:00 Legend Double Dagger 17.1 4.7 43 17 26 24.1 96.12     LegendNANA
21:00 Legend Double Dagger 16.8 4.5 44 16 24 16.1 96.15     LegendNANA
22:00 Legend Double Dagger 15.2 6.3 55 31 8 16.1 96.18     Mostly Cloudy
23:00 Legend Double Dagger 15.0 4.8 50 19 28 19.3 96.19     LegendNANA

Notes on Data Quality.

Legend

  • E = Estimated
  • M = Missing
  • NA = Not Available
  • ‡ = Partner data that is not subject to review by the National Climate Archives
Date modified: